This is the latest recevied weather packets stored in our database for station/object WB9FIU. If no packets are shown the sender has not sent any weather packets the latest 1 day(s).
| Time | Temp. | Humidity | Pressure | Rain* | Wind** | Luminosity | Snow |
|---|---|---|---|---|---|---|---|
| 1778043121 | 9.44° C | 94% | 1007.4 hPa | 0 mm | 1.34 m/s, 336° | - | - |
| 1778043061 | 9.44° C | 94% | 1007.3 hPa | 0 mm | 1.34 m/s, 15° | - | - |
| 1778043001 | 9.44° C | 94% | 1007.3 hPa | 0 mm | 2.24 m/s, 19° | - | - |
| 1778042941 | 9.44° C | 94% | 1007.2 hPa | 0 mm | 0.89 m/s, 344° | - | - |
| 1778042882 | 9.44° C | 94% | 1007.2 hPa | 0 mm | 1.34 m/s, 351° | - | - |
| 1778042821 | 9.44° C | 94% | 1007.1 hPa | 0 mm | 2.24 m/s, 8° | - | - |
| 1778042761 | 9.44° C | 94% | 1007 hPa | 0 mm | 1.34 m/s, 3° | - | - |
| 1778042701 | 9.44° C | 94% | 1007 hPa | 0 mm | 2.24 m/s, 18° | - | - |
| 1778042641 | 9.44° C | 95% | 1007 hPa | 0 mm | 0.89 m/s, 7° | - | - |
| 1778042581 | 10° C | 95% | 1006.9 hPa | 0 mm | 0.89 m/s, 0° | - | - |
| 1778042523 | 10° C | 95% | 1007 hPa | 0 mm | 0.89 m/s, 10° | - | - |
| 1778042461 | 10° C | 95% | 1007 hPa | 0 mm | 0 m/s | - | - |
| 1778042401 | 10° C | 95% | 1007 hPa | 0 mm | 0 m/s | - | - |
| 1778042341 | 10° C | 95% | 1007 hPa | 0 mm | 0.45 m/s, 347° | - | - |
| 1778042280 | 9.44° C | 95% | 1007 hPa | 0 mm | 1.34 m/s, 17° | - | - |
| 1778042220 | 9.44° C | 95% | 1007 hPa | 0 mm | 0.89 m/s, 4° | - | - |
| 1778042160 | 9.44° C | 95% | 1007 hPa | 0 mm | 0.89 m/s, 13° | - | - |
| 1778042100 | 9.44° C | 95% | 1007 hPa | 0 mm | 0.89 m/s, 22° | - | - |
| 1778042040 | 9.44° C | 95% | 1006.9 hPa | 0 mm | 0.89 m/s, 11° | - | - |
| 1778041981 | 9.44° C | 95% | 1006.9 hPa | 0 mm | 0.89 m/s, 22° | - | - |
| 1778041920 | 9.44° C | 95% | 1006.9 hPa | 0 mm | 2.68 m/s, 15° | - | - |
| 1778041862 | 9.44° C | 95% | 1007 hPa | 0 mm | 1.34 m/s, 355° | - | - |
| 1778041800 | 10° C | 95% | 1007 hPa | 0 mm | 0 m/s | - | - |
| 1778041742 | 9.44° C | 95% | 1007 hPa | 0 mm | 0.45 m/s, 3° | - | - |
| 1778041682 | 9.44° C | 95% | 1007 hPa | 0 mm | 0.45 m/s, 3° | - | - |
* Rain latest hour (hover to see other rain measurements)
** Current wind speed in m/s (hover to see current wind gust speed)